This is the latest recevied weather packets stored in our database for station/object OE-11307. If no packets are shown the sender has not sent any weather packets the latest 10 day(s).
| Time | Temp. | Humidity | Pressure | Rain* | Wind** | Luminosity | Snow |
|---|---|---|---|---|---|---|---|
| 1787955914 | 10.56° C | 96% | 854.6 hPa | 6.35 mm | - | 0 W/m² | - |
| 1787955087 | 10.56° C | 96% | 854.5 hPa | 8.13 mm | - | 0 W/m² | - |
| 1787954713 | 10.56° C | 96% | 854.7 hPa | 7.87 mm | - | 0 W/m² | - |
| 1787954114 | 11.11° C | 95% | 855 hPa | 6.35 mm | - | 0 W/m² | - |
| 1787953287 | 11.11° C | 94% | 854.7 hPa | 6.1 mm | - | 0 W/m² | - |
| 1787952914 | 11.11° C | 94% | 854.8 hPa | 5.59 mm | - | 0 W/m² | - |
| 1787952314 | 11.67° C | 95% | 854.9 hPa | 5.59 mm | - | 0 W/m² | - |
| 1787951487 | 11.67° C | 95% | 855 hPa | 5.84 mm | - | 0 W/m² | - |
| 1787951114 | 11.67° C | 95% | 854.8 hPa | 6.35 mm | - | 0 W/m² | - |
| 1787950514 | 11.67° C | 94% | 854 hPa | 7.11 mm | - | 0 W/m² | - |
| 1787949687 | 12.22° C | 94% | 854 hPa | 7.11 mm | - | 0 W/m² | - |
| 1787949314 | 12.78° C | 93% | 854.3 hPa | 6.35 mm | - | 0 W/m² | - |
| 1787948714 | 12.78° C | 95% | 854.1 hPa | 5.84 mm | - | 0 W/m² | - |
| 1787947887 | 12.78° C | 93% | 854.1 hPa | 5.08 mm | - | 0 W/m² | - |
| 1787947513 | 12.78° C | 96% | 853.6 hPa | 3.81 mm | - | 0 W/m² | - |
| 1787946914 | 12.78° C | 95% | 854 hPa | 1.52 mm | - | 0 W/m² | - |
| 1787946087 | 12.78° C | 95% | 853.3 hPa | 0.76 mm | - | 0 W/m² | - |
| 1787945714 | 12.78° C | 95% | 853 hPa | 1.02 mm | - | 0 W/m² | - |
| 1787945113 | 12.78° C | 95% | 852.8 hPa | 1.02 mm | - | 0 W/m² | - |
| 1787944287 | 12.78° C | 95% | 852.7 hPa | 2.79 mm | - | 0 W/m² | - |
| 1787943914 | 12.78° C | 95% | 852.4 hPa | 2.79 mm | - | 0 W/m² | - |
| 1787943313 | 12.78° C | 94% | 852.3 hPa | 2.79 mm | - | 0 W/m² | - |
| 1787942487 | 13.33° C | 95% | 852.5 hPa | 2.54 mm | - | 0 W/m² | - |
| 1787941509 | 13.33° C | 94% | 852.8 hPa | 2.03 mm | - | 0 W/m² | - |
| 1787940687 | 12.78° C | 93% | 852.4 hPa | 1.78 mm | - | 0 W/m² | - |
* Rain latest hour (hover to see other rain measurements)
** Current wind speed in m/s (hover to see current wind gust speed)